Moore, Oklahoma, United States
Lat: 35.34N, Lon: 97.49W
Wx Zone: OKZ029
Local Info
Past Weather Observations for Friday, April 18, 2014

NOTE: This archive is for the closest National Weather Service station to Moore. Information may differ from the station used for current weather conditions.

Time Weather Temperature Dewpoint Humidity Pressure Winds Precip Visibility
23:52
Mostly Cloudy
54°F / 12°C 43°F / 6°C 67% 30.15 in
(1021 mb)
S 4.6 mph
(S 7 kph)
- 10SM
22:52
Mostly Cloudy
55°F / 13°C 43°F / 6°C 63% 30.15 in
(1021 mb)
SSE 4.6 mph
(SSE 7 kph)
- 10SM
21:52
Mostly Cloudy
55°F / 13°C 43°F / 6°C 63% 30.12 in
(1020 mb)
SE 6.9 mph
(SE 11 kph)
- 10SM
20:52
Partly Cloudy
57°F / 14°C 43°F / 6°C 59% 30.12 in
(1020 mb)
SE 8.1 mph
(SE 13 kph)
- 10SM
19:52
Partly Cloudy
57°F / 14°C 43°F / 6°C 59% 30.12 in
(1020 mb)
SSE 6.9 mph
(SSE 11 kph)
- 10SM
18:52
Partly Cloudy
64°F / 18°C 43°F / 6°C 46% 30.12 in
(1020 mb)
SSE 8.1 mph
(SSE 13 kph)
- 10SM
17:52
Partly Cloudy
73°F / 23°C 43°F / 6°C 33% 30.12 in
(1020 mb)
SSE 9.2 mph
(SSE 15 kph)
- 10SM
16:52
Partly Cloudy
73°F / 23°C 43°F / 6°C 33% 30.12 in
(1020 mb)
SSE 6.9 mph
(SSE 11 kph)
- 10SM
15:52
Partly Cloudy
73°F / 23°C 41°F / 5°C 31% 30.15 in
(1021 mb)
SSE 9.2 mph
(SSE 15 kph)
- 10SM
14:52
Partly Cloudy
75°F / 24°C 41°F / 5°C 29% 30.15 in
(1021 mb)
SSE 10.4 mph
(SSE 17 kph)
- 10SM
13:52
Partly Cloudy
73°F / 23°C 41°F / 5°C 31% 30.18 in
(1022 mb)
SSE 13.8 mph
(SSE 22 kph)
- 10SM
12:52
Clear
72°F / 22°C 41°F / 5°C 33% 30.21 in
(1023 mb)
SE 6.9 mph
(SE 11 kph)
- 10SM
11:52
Clear
70°F / 21°C 41°F / 5°C 35% 30.24 in
(1024 mb)
SE 8.1 mph
(SE 13 kph)
- 10SM
10:52
Clear
66°F / 19°C 41°F / 5°C 40% 30.27 in
(1025 mb)
SE 10.4 mph
(SE 17 kph)
- 10SM
09:52
Clear
61°F / 16°C 41°F / 5°C 48% 30.27 in
(1025 mb)
Variable 6.9 mph
(Variable 11 kph)
- 9SM
08:52
Clear
Hazy
55°F / 13°C 41°F / 5°C 59% 30.27 in
(1025 mb)
ENE 5.8 mph
(ENE 9 kph)
- 6SM
07:52
Clear
Hazy
48°F / 9°C 39°F / 4°C 71% 30.27 in
(1025 mb)
ENE 4.6 mph
(ENE 7 kph)
- 5SM
06:52
Partly Cloudy
Hazy
45°F / 7°C 37°F / 3°C 76% 30.27 in
(1025 mb)
N 5.8 mph
(N 9 kph)
- 4SM
05:52
Partly Cloudy
Hazy
43°F / 6°C 37°F / 3°C 81% 30.24 in
(1024 mb)
NNE 8.1 mph
(NNE 13 kph)
- 5SM
04:52
Partly Cloudy
Hazy
45°F / 7°C 37°F / 3°C 76% 30.24 in
(1024 mb)
NE 9.2 mph
(NE 15 kph)
- 6SM
03:52
Clear
Hazy
45°F / 7°C 37°F / 3°C 76% 30.24 in
(1024 mb)
N 4.6 mph
(N 7 kph)
- 6SM
02:52
Partly Cloudy
Hazy
46°F / 8°C 39°F / 4°C 76% 30.24 in
(1024 mb)
N 5.8 mph
(N 9 kph)
- 6SM
01:52
Partly Cloudy
Hazy
46°F / 8°C 39°F / 4°C 76% 30.24 in
(1024 mb)
NE 4.6 mph
(NE 7 kph)
- 6SM
00:52
Mostly Cloudy
50°F / 10°C 39°F / 4°C 67% 30.24 in
(1024 mb)
NE 5.8 mph
(NE 9 kph)
- 8SM
Time Weather Temperature Dewpoint Humidity Pressure Winds Precip Visibility


Weather for websites

WeatherForYou.com, LLC is not responsible for any damages or problems caused by this service. Current weather conditions are obtained from the closest station including government and personal stations which may have varying degrees of accuracy. Weather forecasts are derived from the NOAA NDFD. Like all things, this site belongs to Jesus Christ... He just trusts me to maintain it. If you have any questions or comments email webmaster@weatherforyou.com

Copyright © 2014, WeatherForYou.com LLC. All rights reserved.